Weather History for Beaufort, SC

Change the Weather History Date:

Friday, November 8, 2013

  Actual Average (KNBC) Record (KNBC)
Temperature  
Mean Temperature 53 °F -  
Max Temperature 62 °F 69 °F 85 °F (1938)
Min Temperature 44 °F 48 °F 30 °F (1967)
Degree Days  
Heating Degree Days 12    
Growing Degree Days 3 (Base 50)    
Moisture  
Dew Point 39 °F    
Average Humidity 58    
Maximum Humidity 100    
Minimum Humidity 34    
Precipitation  
Precipitation 0.01 in - - ()
Sea Level Pressure  
Sea Level Pressure 30.22 in    
Wind  
Wind Speed 11 mph (North)    
Max Wind Speed 23 mph    
Max Gust Speed 28 mph    
Visibility 7 miles    
Events      
Averages and records for this station are not official NWS values.
T = Trace of Precipitation, MM = Missing Value Source: NWS Daily Summary

Daily Weather History Graph

Daily Weather History Graph

Search for Another Location

Airport:

Trip Planner

Search our weather history database for the weather conditions in past years. The results will help you decide how hot, cold, wet, or windy it might be!

Date:

Astronomy

Nov. 08, 2013 Rise Set
Actual Time 6:45 AM EST 5:26 PM EST
Civil Twilight 6:20 AM EST 5:51 PM EST
Nautical Twilight 5:50 AM EST 6:21 PM EST
Astronomical Twilight 5:21 AM EST 6:50 PM EST
Moon 11:40 AM EST (11/8) 10:44 PM EST (11/8)
Length of Visible Light 11h 31m
Length of Day
10h 40m
Waxing Crescent, 33% of the Moon is Illuminated
Nov 8
Waxing Crescent
Nov 10
First Quarter
Nov 17
Full
Nov 25
Last Quarter
Dec 2
New

Hourly Weather History & Observations

Time (EST) Temp. Windchill Dew Point Humidity Pressure Visibility Wind Dir Wind Speed Gust Speed Precip Events Conditions
12:15 AM 60.8 °F - 53.6 °F 77% 30.05 in 7.0 mi NW 8.1 mph - N/A   Scattered Clouds
12:35 AM 60.8 °F - 53.6 °F 77% 30.06 in 7.0 mi NNW 8.1 mph - N/A   Scattered Clouds
12:55 AM 60.8 °F - 53.6 °F 77% 30.06 in 7.0 mi NNW 6.9 mph - N/A   Scattered Clouds
1:15 AM 60.8 °F - 50.0 °F 68% 30.08 in 7.0 mi North 15.0 mph 19.6 mph N/A   Overcast
1:35 AM 60.8 °F - 46.4 °F 59% 30.09 in 7.0 mi North 12.7 mph 19.6 mph N/A   Overcast
1:55 AM 59.0 °F - 44.6 °F 59% 30.09 in 7.0 mi North 15.0 mph 21.9 mph N/A   Scattered Clouds
2:15 AM 59.0 °F - 44.6 °F 59% 30.10 in 10.0 mi North 11.5 mph 19.6 mph N/A   Scattered Clouds
2:35 AM 57.2 °F - 42.8 °F 59% 30.11 in 7.0 mi North 16.1 mph - N/A   Scattered Clouds
2:55 AM 57.2 °F - 41.0 °F 55% 30.11 in 7.0 mi North 13.8 mph 19.6 mph N/A   Scattered Clouds
3:15 AM 55.4 °F - 41.0 °F 58% 30.12 in 7.0 mi North 12.7 mph - N/A   Scattered Clouds
3:35 AM 55.4 °F - 41.0 °F 58% 30.13 in 7.0 mi North 12.7 mph - N/A   Clear
3:55 AM 53.6 °F - 37.4 °F 54% 30.14 in 10.0 mi North 16.1 mph 19.6 mph N/A   Scattered Clouds
4:15 AM 53.6 °F - 37.4 °F 54% 30.14 in 10.0 mi North 15.0 mph - N/A   Scattered Clouds
4:35 AM 53.6 °F - 37.4 °F 54% 30.16 in 7.0 mi North 13.8 mph 21.9 mph N/A   Scattered Clouds
4:55 AM 53.6 °F - 37.4 °F 54% 30.16 in 10.0 mi NNE 19.6 mph 23.0 mph N/A   Scattered Clouds
5:15 AM 51.8 °F - 37.4 °F 58% 30.17 in 10.0 mi NNE 16.1 mph 24.2 mph N/A   Clear
5:35 AM 51.8 °F - 37.4 °F 58% 30.18 in 7.0 mi NNE 19.6 mph 24.2 mph N/A   Scattered Clouds
5:55 AM 51.8 °F - 37.4 °F 58% 30.19 in 7.0 mi NNE 13.8 mph - N/A   Scattered Clouds
6:15 AM 50.0 °F - 37.4 °F 62% 30.20 in 7.0 mi North 16.1 mph 21.9 mph N/A   Clear
6:35 AM 50.0 °F - 37.4 °F 62% 30.20 in 7.0 mi North 13.8 mph - N/A   Clear
6:55 AM 50.0 °F - 37.4 °F 62% 30.21 in 7.0 mi NNE 16.1 mph - N/A   Scattered Clouds
7:15 AM 50.0 °F - 37.4 °F 62% 30.23 in 7.0 mi NNE 15.0 mph 21.9 mph N/A   Scattered Clouds
7:35 AM 50.0 °F - 37.4 °F 62% 30.24 in 5.0 mi NNE 16.1 mph 19.6 mph N/A   Haze
7:55 AM 50.0 °F - 37.4 °F 62% 30.24 in 7.0 mi NNE 12.7 mph - N/A   Clear
8:15 AM 51.8 °F - 37.4 °F 58% 30.25 in 5.0 mi NNE 19.6 mph 24.2 mph N/A   Haze
8:35 AM 51.8 °F - 37.4 °F 58% 30.26 in 5.0 mi NNE 23.0 mph 26.5 mph N/A   Haze
8:55 AM 53.6 °F - 37.4 °F 54% 30.27 in 5.0 mi NNE 19.6 mph 24.2 mph N/A   Haze
9:15 AM 53.6 °F - 35.6 °F 51% 30.27 in 7.0 mi NNE 21.9 mph 27.6 mph N/A   Clear
9:35 AM 53.6 °F - 37.4 °F 54% 30.27 in 7.0 mi NNE 13.8 mph - N/A   Clear
9:55 AM 55.4 °F - 37.4 °F 51% 30.28 in 7.0 mi NNE 16.1 mph 25.3 mph N/A   Clear
10:15 AM 55.4 °F - 35.6 °F 47% 30.28 in 7.0 mi NNE 18.4 mph - N/A   Clear
10:35 AM 57.2 °F - 35.6 °F 44% 30.28 in 7.0 mi North 17.3 mph 24.2 mph N/A   Clear
10:55 AM 59.0 °F - 35.6 °F 42% 30.28 in 5.0 mi North 15.0 mph - N/A   Haze
11:15 AM 59.0 °F - 35.6 °F 42% 30.27 in 7.0 mi NE 16.1 mph - N/A   Clear
11:35 AM 59.0 °F - 35.6 °F 42% 30.27 in 7.0 mi North 11.5 mph 19.6 mph N/A   Clear
11:55 AM 59.0 °F - 35.6 °F 42% 30.26 in 5.0 mi NNE 17.3 mph 21.9 mph N/A   Haze
12:15 PM 60.8 °F - 35.6 °F 39% 30.25 in 7.0 mi North 12.7 mph - N/A   Clear
12:35 PM 60.8 °F - 33.8 °F 36% 30.25 in 7.0 mi NNE 13.8 mph - N/A   Clear
12:55 PM 60.8 °F - 33.8 °F 36% 30.24 in 7.0 mi NNE 15.0 mph 18.4 mph N/A   Clear
1:15 PM 60.8 °F - 33.8 °F 36% 30.23 in 5.0 mi North 11.5 mph - N/A   Haze
1:35 PM 62.6 °F - 33.8 °F 34% 30.22 in 7.0 mi North 12.7 mph - N/A   Clear
1:55 PM 60.8 °F - 33.8 °F 36% 30.22 in 7.0 mi North 13.8 mph 19.6 mph N/A   Clear
2:15 PM 62.6 °F - 33.8 °F 34% 30.22 in 7.0 mi NNE 11.5 mph - N/A   Clear
2:35 PM 62.6 °F - 33.8 °F 34% 30.22 in 5.0 mi NNE 11.5 mph - N/A   Haze
2:55 PM 62.6 °F - 33.8 °F 34% 30.22 in 5.0 mi North 8.1 mph - N/A   Haze
3:15 PM 62.6 °F - 33.8 °F 34% 30.22 in 7.0 mi North 11.5 mph - N/A   Clear
3:35 PM 62.6 °F - 33.8 °F 34% 30.22 in 7.0 mi North 11.5 mph - N/A   Clear
3:55 PM 62.6 °F - 33.8 °F 34% 30.22 in 7.0 mi North 10.4 mph - N/A   Clear
4:15 PM 60.8 °F - 33.8 °F 36% 30.22 in 7.0 mi North 6.9 mph - N/A   Clear
4:35 PM 60.8 °F - 33.8 °F 36% 30.23 in 7.0 mi North 6.9 mph - N/A   Clear
4:55 PM 59.0 °F - 35.6 °F 42% 30.23 in 5.0 mi North 5.8 mph - N/A   Haze
5:15 PM 57.2 °F - 37.4 °F 48% 30.24 in 7.0 mi North 6.9 mph - N/A   Clear
5:35 PM 55.4 °F - 37.4 °F 51% 30.24 in 7.0 mi North 5.8 mph - N/A   Clear
5:55 PM 53.6 °F - 39.2 °F 58% 30.24 in 7.0 mi North 4.6 mph - N/A   Clear
6:15 PM 51.8 °F - 39.2 °F 62% 30.25 in 10.0 mi North 4.6 mph - N/A   Clear
6:35 PM 51.8 °F - 39.2 °F 62% 30.25 in 7.0 mi North 6.9 mph - N/A   Clear
6:55 PM 51.8 °F - 41.0 °F 67% 30.26 in 7.0 mi North 4.6 mph - 0.01 in   Clear
7:15 PM 50.0 °F - 41.0 °F 71% 30.27 in 7.0 mi North 4.6 mph - N/A   Clear
7:35 PM 50.0 °F - 39.2 °F 66% 30.27 in 7.0 mi North 5.8 mph - N/A   Clear
7:55 PM 50.0 °F - 41.0 °F 71% 30.28 in 7.0 mi NNE 4.6 mph - N/A   Clear
8:15 PM 46.4 °F 45.2 °F 39.2 °F 76% 30.27 in 7.0 mi NE 3.5 mph - N/A   Clear
8:35 PM 46.4 °F - 41.0 °F 81% 30.27 in 7.0 mi Calm Calm - N/A   Clear
8:55 PM 46.4 °F - 41.0 °F 81% 30.28 in 7.0 mi Calm Calm - N/A   Clear
9:15 PM 44.6 °F - 41.0 °F 87% 30.29 in 7.0 mi Calm Calm - N/A   Clear
9:35 PM 44.6 °F - 41.0 °F 87% 30.29 in 7.0 mi Calm Calm - N/A   Clear
9:55 PM 46.4 °F - 41.0 °F 81% 30.30 in 7.0 mi Calm Calm - N/A   Clear
10:15 PM 44.6 °F - 41.0 °F 87% 30.30 in 7.0 mi Calm Calm - N/A   Clear
10:35 PM 44.6 °F 43.1 °F 41.0 °F 87% 30.29 in 7.0 mi NNE 3.5 mph - N/A   Clear
10:55 PM 44.6 °F - 42.8 °F 93% 30.29 in 7.0 mi Calm Calm - N/A   Clear
11:15 PM 44.6 °F - 42.8 °F 93% 30.29 in 7.0 mi Calm Calm - N/A   Clear
11:35 PM 44.6 °F - 42.8 °F 93% 30.28 in 7.0 mi Calm Calm - N/A   Clear
11:55 PM 44.6 °F - 44.6 °F 100% 30.28 in 7.0 mi Calm Calm - N/A   Clear